Flag Weather past 2 weeks in Alexandria, Virginia, U.S.A.

Now
63 °F

Passing clouds.


Feels Like: 63 °F
Forecast: 47 / 59 °F
Wind: 8 mph from Southwest

Location: Reagan National Airport

Current Time: Nov 24, 2014 at 9:19:26 PM

Latest Report: Nov 24, 2014 at 8:52 PM


Visibility: 10 mi

Pressure: 29.72 "Hg

Humidity: 70%

Dew point: 53 °F

Location of AlexandriaLocation

Historic Weather in Alexandria — Graph

°F

Alexandria temperature yesterday

Maximum temperature yesterday: 57 °F (at 3:52 PM)
Minimum temperature yesterday: 40 °F (at 5:52 AM)
Average temperature yesterday: 49 °F

Past Weeks' High & Low Weather Summary

 TemperatureHumidityPressure
High74 °F (Nov 24, 2:52 PM)90% (Nov 12, 5:52 AM)30.57 "Hg (Nov 12, 5:52 AM)
Low22 °F (Nov 19, 4:52 AM)23% (Nov 18, 2:52 PM)29.57 "Hg (Nov 17, 3:00 PM)
Average45 °F51%30.12 "Hg
* Reported Nov 9 7:52 PM — Nov 24 7:52 PM, Alexandria, Weather by CustomWeather, © 2014

Note: Actual official high and low records may vary slightly from our data, if they occured in-between our weather recording intervals... More about our weather records

Advertising

Alexandria weather history for previous 24 hours

 ConditionsComfort  
Time TempWeatherWind HumidityBarometerVisibility
7:52 PM
Nov 24
63 °FPassing clouds.10 mph68%29.72 "Hg10 mi
6:52 PM67 °FClear.12 mph59%29.69 "Hg10 mi
5:52 PM63 °FClear.8 mph63%29.68 "Hg10 mi
4:52 PM71 °FPassing clouds.12 mph51%29.66 "Hg10 mi
3:52 PM73 °FPassing clouds.13 mph48%29.65 "Hg10 mi
2:52 PM74 °FPassing clouds.21 mph46%29.63 "Hg10 mi
1:52 PM73 °FPassing clouds.16 mph50%29.61 "Hg10 mi
12:52 PM71 °FPartly sunny.21 mph55%29.65 "Hg10 mi
11:52 AM69 °FPartly sunny.16 mph63%29.66 "Hg10 mi
10:52 AM67 °FOvercast.18 mph68%29.70 "Hg10 mi
9:52 AM68 °FPartly sunny.17 mph68%29.70 "Hg10 mi
8:52 AM67 °FPassing clouds.13 mph73%29.69 "Hg10 mi
7:52 AM62 °FBroken clouds.12 mph80%29.68 "Hg10 mi
6:52 AM64 °FPassing clouds.12 mph78%29.67 "Hg10 mi
5:52 AM61 °FPartly cloudy.16 mph83%29.66 "Hg10 mi
4:52 AM60 °FPassing clouds.16 mph83%29.66 "Hg10 mi
3:52 AM61 °FMostly cloudy.15 mph83%29.66 "Hg10 mi
2:52 AM64 °FLight rain. Overcast.15 mph84%29.67 "Hg10 mi
1:52 AM63 °FOvercast.21 mph81%29.67 "Hg10 mi
12:52 AM61 °FLight rain. Overcast.18 mph83%29.73 "Hg4 mi
12:01 AM55 °FRain. Fog.7 mph88%29.79 "Hg4 mi
10:52 PM
Nov 23
53 °FLight rain. Mostly cloudy.3 mph83%29.86 "Hg5 mi
9:54 PM54 °FMostly cloudy.5 mph82%29.94 "Hg10 mi
9:03 PM54 °FLight rain. Mostly cloudy.5 mph77%29.98 "Hg8 mi
Weather by CustomWeather, © 2014

See weather overviewHow to use our weather pages